Year,Month,Day,Hour,Minute,Value (Times are PST for temperature in C)
2015,04,29,00,00,9.10
2015,04,29,00,01,9.10
2015,04,29,00,02,9.10
2015,04,29,00,03,9.10
2015,04,29,00,04,9.10
2015,04,29,00,05,9.10
2015,04,29,00,06,9.10
2015,04,29,00,07,9.10
2015,04,29,00,08,9.10
2015,04,29,00,09,9.10
2015,04,29,00,10,9.10
2015,04,29,00,11,9.10
2015,04,29,00,12,9.10
2015,04,29,00,13,9.10
2015,04,29,00,14,9.10
2015,04,29,00,15,9.00
2015,04,29,00,16,9.00
2015,04,29,00,17,9.00
2015,04,29,00,18,9.00
2015,04,29,00,19,9.00
2015,04,29,00,20,8.90
2015,04,29,00,21,8.90
2015,04,29,00,22,8.90
2015,04,29,00,23,8.90
2015,04,29,00,24,8.80
2015,04,29,00,25,8.80
2015,04,29,00,26,8.80
2015,04,29,00,27,8.70
2015,04,29,00,28,8.70
2015,04,29,00,29,8.60
2015,04,29,00,30,8.60
2015,04,29,00,31,8.60
2015,04,29,00,32,8.50
2015,04,29,00,33,8.50
2015,04,29,00,34,8.40
2015,04,29,00,35,8.40
2015,04,29,00,36,8.40
2015,04,29,00,37,8.40
2015,04,29,00,38,8.30
2015,04,29,00,39,8.30
2015,04,29,00,40,8.30
2015,04,29,00,41,8.30
2015,04,29,00,42,8.30
2015,04,29,00,43,8.20
2015,04,29,00,44,8.20
2015,04,29,00,45,8.20
2015,04,29,00,46,8.20
2015,04,29,00,47,8.10
2015,04,29,00,48,8.10
2015,04,29,00,49,8.10
2015,04,29,00,50,8.00
2015,04,29,00,51,8.00
2015,04,29,00,52,8.00
2015,04,29,00,53,7.90
2015,04,29,00,54,7.90
2015,04,29,00,55,7.90
2015,04,29,00,56,7.90
2015,04,29,00,57,7.90
2015,04,29,00,58,7.90
2015,04,29,00,59,7.80
2015,04,29,01,00,7.80
2015,04,29,01,01,7.80
2015,04,29,01,02,7.80
2015,04,29,01,03,7.80
2015,04,29,01,04,7.80
2015,04,29,01,05,7.80
2015,04,29,01,06,7.80
2015,04,29,01,07,7.80
2015,04,29,01,08,7.80
2015,04,29,01,09,7.80
2015,04,29,01,10,7.80
2015,04,29,01,11,7.80
2015,04,29,01,12,7.80
2015,04,29,01,13,7.80
2015,04,29,01,14,7.80
2015,04,29,01,15,7.80
2015,04,29,01,16,7.80
2015,04,29,01,17,7.80
2015,04,29,01,18,7.80
2015,04,29,01,19,7.80
2015,04,29,01,20,7.80
2015,04,29,01,21,7.80
2015,04,29,01,22,7.80
2015,04,29,01,23,7.80
2015,04,29,01,24,7.70
2015,04,29,01,25,7.70
2015,04,29,01,26,7.70
2015,04,29,01,27,7.70
2015,04,29,01,28,7.70
2015,04,29,01,29,7.60
2015,04,29,01,30,7.60
2015,04,29,01,31,7.60
2015,04,29,01,32,7.60
2015,04,29,01,33,7.60
2015,04,29,01,34,7.60
2015,04,29,01,35,7.60
2015,04,29,01,36,7.60
2015,04,29,01,37,7.60
2015,04,29,01,38,7.60
2015,04,29,01,39,7.60
2015,04,29,01,40,7.60
2015,04,29,01,41,7.60
2015,04,29,01,42,7.50
2015,04,29,01,43,7.50
2015,04,29,01,44,7.50
2015,04,29,01,45,7.50
2015,04,29,01,46,7.40
2015,04,29,01,47,7.40
2015,04,29,01,48,7.40
2015,04,29,01,49,7.40
2015,04,29,01,50,7.40
2015,04,29,01,51,7.40
2015,04,29,01,52,7.40
2015,04,29,01,53,7.40
2015,04,29,01,54,7.40
2015,04,29,01,55,7.40
2015,04,29,01,56,7.40
2015,04,29,01,57,7.30
2015,04,29,01,58,7.30
2015,04,29,01,59,7.30
2015,04,29,02,00,7.30
2015,04,29,02,01,7.30
2015,04,29,02,02,7.30
2015,04,29,02,03,7.30
2015,04,29,02,04,7.20
2015,04,29,02,05,7.20
2015,04,29,02,06,7.20
2015,04,29,02,07,7.20
2015,04,29,02,08,7.20
2015,04,29,02,09,7.20
2015,04,29,02,10,7.20
2015,04,29,02,11,7.20
2015,04,29,02,12,7.20
2015,04,29,02,13,7.20
2015,04,29,02,14,7.20
2015,04,29,02,15,7.20
2015,04,29,02,16,7.20
2015,04,29,02,17,7.20
2015,04,29,02,18,7.20
2015,04,29,02,19,7.20
2015,04,29,02,20,7.20
2015,04,29,02,21,7.20
2015,04,29,02,22,7.20
2015,04,29,02,23,7.20
2015,04,29,02,24,7.20
2015,04,29,02,25,7.20
2015,04,29,02,26,7.20
2015,04,29,02,27,7.20
2015,04,29,02,28,7.20
2015,04,29,02,29,7.20
2015,04,29,02,30,7.20
2015,04,29,02,31,7.20
2015,04,29,02,32,7.20
2015,04,29,02,33,7.20
2015,04,29,02,34,7.20
2015,04,29,02,35,7.20
2015,04,29,02,36,7.20
2015,04,29,02,37,7.20
2015,04,29,02,38,7.10
2015,04,29,02,39,7.10
2015,04,29,02,40,7.10
2015,04,29,02,41,7.10
2015,04,29,02,42,7.10
2015,04,29,02,43,7.10
2015,04,29,02,44,7.10
2015,04,29,02,45,7.10
2015,04,29,02,46,7.10
2015,04,29,02,47,7.10
2015,04,29,02,48,7.10
2015,04,29,02,49,7.00
2015,04,29,02,50,7.00
2015,04,29,02,51,7.00
2015,04,29,02,52,7.00
2015,04,29,02,53,7.00
2015,04,29,02,54,7.00
2015,04,29,02,55,7.00
2015,04,29,02,56,7.00
2015,04,29,02,57,7.00
2015,04,29,02,58,7.00
2015,04,29,02,59,7.00
2015,04,29,03,00,7.00
2015,04,29,03,01,7.00
2015,04,29,03,02,6.90
2015,04,29,03,03,6.90
2015,04,29,03,04,6.90
2015,04,29,03,05,6.90
2015,04,29,03,06,6.90
2015,04,29,03,07,6.90
2015,04,29,03,08,6.90
2015,04,29,03,09,6.90
2015,04,29,03,10,6.90
2015,04,29,03,11,6.90
2015,04,29,03,12,6.90
2015,04,29,03,13,6.90
2015,04,29,03,14,6.90
2015,04,29,03,15,6.90
2015,04,29,03,16,6.90
2015,04,29,03,17,6.90
2015,04,29,03,18,6.90
2015,04,29,03,19,6.90
2015,04,29,03,20,6.80
2015,04,29,03,21,6.80
2015,04,29,03,22,6.80
2015,04,29,03,23,6.80
2015,04,29,03,24,6.80
2015,04,29,03,25,6.80
2015,04,29,03,26,6.80
2015,04,29,03,27,6.80
2015,04,29,03,28,6.70
2015,04,29,03,29,6.70
2015,04,29,03,30,6.70
2015,04,29,03,31,6.70
2015,04,29,03,32,6.70
2015,04,29,03,33,6.70
2015,04,29,03,34,6.60
2015,04,29,03,35,6.60
2015,04,29,03,36,6.60
2015,04,29,03,37,6.60
2015,04,29,03,38,6.50
2015,04,29,03,39,6.50
2015,04,29,03,40,6.40
2015,04,29,03,41,6.40
2015,04,29,03,42,6.30
2015,04,29,03,43,6.30
2015,04,29,03,44,6.30
2015,04,29,03,45,6.20
2015,04,29,03,46,6.20
2015,04,29,03,47,6.20
2015,04,29,03,48,6.20
2015,04,29,03,49,6.20
2015,04,29,03,50,6.10
2015,04,29,03,51,6.10
2015,04,29,03,52,6.10
2015,04,29,03,53,6.10
2015,04,29,03,54,6.10
2015,04,29,03,55,6.10
2015,04,29,03,56,6.10
2015,04,29,03,57,6.00
2015,04,29,03,58,6.00
2015,04,29,03,59,6.00
2015,04,29,04,00,6.00
2015,04,29,04,01,5.90
2015,04,29,04,02,5.90
2015,04,29,04,03,5.90
2015,04,29,04,04,5.90
2015,04,29,04,05,5.90
2015,04,29,04,06,5.90
2015,04,29,04,07,5.90
2015,04,29,04,08,5.90
2015,04,29,04,09,5.90
2015,04,29,04,10,5.90
2015,04,29,04,11,5.90
2015,04,29,04,12,5.90
2015,04,29,04,13,5.90
2015,04,29,04,14,5.90
2015,04,29,04,15,5.90
2015,04,29,04,16,5.90
2015,04,29,04,17,5.90
2015,04,29,04,18,5.90
2015,04,29,04,19,5.90
2015,04,29,04,20,5.90
2015,04,29,04,21,5.80
2015,04,29,04,22,5.80
2015,04,29,04,23,5.80
2015,04,29,04,24,5.80
2015,04,29,04,25,5.80
2015,04,29,04,26,5.80
2015,04,29,04,27,5.80
2015,04,29,04,28,5.70
2015,04,29,04,29,5.70
2015,04,29,04,30,5.70
2015,04,29,04,31,5.70
2015,04,29,04,32,5.70
2015,04,29,04,33,5.70
2015,04,29,04,34,5.70
2015,04,29,04,35,5.60
2015,04,29,04,36,5.60
2015,04,29,04,37,5.60
2015,04,29,04,38,5.60
2015,04,29,04,39,5.60
2015,04,29,04,40,5.60
2015,04,29,04,41,5.60
2015,04,29,04,42,5.60
2015,04,29,04,43,5.60
2015,04,29,04,44,5.60
2015,04,29,04,45,5.60
2015,04,29,04,46,5.50
2015,04,29,04,47,5.50
2015,04,29,04,48,5.50
2015,04,29,04,49,5.50
2015,04,29,04,50,5.50
2015,04,29,04,51,5.50
2015,04,29,04,52,5.50
2015,04,29,04,53,5.50
2015,04,29,04,54,5.50
2015,04,29,04,55,5.50
2015,04,29,04,56,5.50
2015,04,29,04,57,5.50
2015,04,29,04,58,5.50
2015,04,29,04,59,5.40
2015,04,29,05,00,5.40
2015,04,29,05,01,5.40
2015,04,29,05,02,5.40
2015,04,29,05,03,5.40
2015,04,29,05,04,5.40
2015,04,29,05,05,5.40
2015,04,29,05,06,5.30
2015,04,29,05,07,5.30
2015,04,29,05,08,5.30
2015,04,29,05,09,5.30
2015,04,29,05,10,5.30
2015,04,29,05,11,5.30
2015,04,29,05,12,5.30
2015,04,29,05,13,5.20
2015,04,29,05,14,5.20
2015,04,29,05,15,5.20
2015,04,29,05,16,5.20
2015,04,29,05,17,5.20
2015,04,29,05,18,5.10
2015,04,29,05,19,5.10
2015,04,29,05,20,5.10
2015,04,29,05,21,5.10
2015,04,29,05,22,5.10
2015,04,29,05,23,5.10
2015,04,29,05,24,5.10
2015,04,29,05,25,5.10
2015,04,29,05,26,5.10
2015,04,29,05,27,5.10
2015,04,29,05,28,5.10
2015,04,29,05,29,5.10
2015,04,29,05,30,5.10
2015,04,29,05,31,5.10
2015,04,29,05,32,5.10
2015,04,29,05,33,5.10
2015,04,29,05,34,5.00
2015,04,29,05,35,5.00
2015,04,29,05,36,5.00
2015,04,29,05,37,5.00
2015,04,29,05,38,5.00
2015,04,29,05,39,5.00
2015,04,29,05,40,5.00
2015,04,29,05,41,4.90
2015,04,29,05,42,4.90
2015,04,29,05,43,4.90
2015,04,29,05,44,4.90
2015,04,29,05,45,4.90
2015,04,29,05,46,4.90
2015,04,29,05,47,5.00
2015,04,29,05,48,5.00
2015,04,29,05,49,5.00
2015,04,29,05,50,5.10
2015,04,29,05,51,5.10
2015,04,29,05,52,5.10
2015,04,29,05,53,5.10
2015,04,29,05,54,5.10
2015,04,29,05,55,5.10
2015,04,29,05,56,5.10
2015,04,29,05,57,5.10
2015,04,29,05,58,5.10
2015,04,29,05,59,5.10
2015,04,29,06,00,5.10
2015,04,29,06,01,5.00
2015,04,29,06,02,5.00
2015,04,29,06,03,5.00
2015,04,29,06,04,5.00
2015,04,29,06,05,5.00
2015,04,29,06,06,5.00
2015,04,29,06,07,5.00
2015,04,29,06,08,5.00
2015,04,29,06,09,5.00
2015,04,29,06,10,5.00
2015,04,29,06,11,5.00
2015,04,29,06,12,5.00
2015,04,29,06,13,5.00
2015,04,29,06,14,5.00
2015,04,29,06,15,5.10
2015,04,29,06,16,5.10
2015,04,29,06,17,5.10
2015,04,29,06,18,5.10
2015,04,29,06,19,5.10
2015,04,29,06,20,5.10
2015,04,29,06,21,5.10
2015,04,29,06,22,5.10
2015,04,29,06,23,5.10
2015,04,29,06,24,5.10
2015,04,29,06,25,5.10
2015,04,29,06,26,5.10
2015,04,29,06,27,5.10
2015,04,29,06,28,5.10
2015,04,29,06,29,5.10
2015,04,29,06,30,5.20
2015,04,29,06,31,5.20
2015,04,29,06,32,5.20
2015,04,29,06,33,5.20
2015,04,29,06,34,5.20
2015,04,29,06,35,5.20
2015,04,29,06,36,5.20
2015,04,29,06,37,5.20
2015,04,29,06,38,5.20
2015,04,29,06,39,5.20
2015,04,29,06,40,5.20
2015,04,29,06,41,5.20
2015,04,29,06,42,5.30
2015,04,29,06,43,5.30
2015,04,29,06,44,5.30
2015,04,29,06,45,5.30
2015,04,29,06,46,5.30
2015,04,29,06,47,5.30
2015,04,29,06,48,5.30
2015,04,29,06,49,5.40
2015,04,29,06,50,5.40
2015,04,29,06,51,5.40
2015,04,29,06,52,5.50
2015,04,29,06,53,5.50
2015,04,29,06,54,5.50
2015,04,29,06,55,5.50
2015,04,29,06,56,5.60
2015,04,29,06,57,5.60
2015,04,29,06,58,5.60
2015,04,29,06,59,5.60
2015,04,29,07,00,5.60
2015,04,29,07,01,5.60
2015,04,29,07,02,5.60
2015,04,29,07,03,5.70
2015,04,29,07,04,5.70
2015,04,29,07,05,5.70
2015,04,29,07,06,5.70
2015,04,29,07,07,5.70
2015,04,29,07,08,5.70
2015,04,29,07,09,5.70
2015,04,29,07,10,5.80
2015,04,29,07,11,5.80
2015,04,29,07,12,5.80
2015,04,29,07,13,5.80
2015,04,29,07,14,5.80
2015,04,29,07,15,5.90
2015,04,29,07,16,5.90
2015,04,29,07,17,5.90
2015,04,29,07,18,5.90
2015,04,29,07,19,5.90
2015,04,29,07,20,6.00
2015,04,29,07,21,6.00
2015,04,29,07,22,6.00
2015,04,29,07,23,6.00
2015,04,29,07,24,6.10
2015,04,29,07,25,6.10
2015,04,29,07,26,6.10
2015,04,29,07,27,6.10
2015,04,29,07,28,6.10
2015,04,29,07,29,6.20
2015,04,29,07,30,6.20
2015,04,29,07,31,6.20
2015,04,29,07,32,6.30
2015,04,29,07,33,6.30
2015,04,29,07,34,6.30
2015,04,29,07,35,6.30
2015,04,29,07,36,6.40
2015,04,29,07,37,6.40
2015,04,29,07,38,6.40
2015,04,29,07,39,6.40
2015,04,29,07,40,6.50
2015,04,29,07,41,6.50
2015,04,29,07,42,6.60
2015,04,29,07,43,6.60
2015,04,29,07,44,6.60
2015,04,29,07,45,6.60
2015,04,29,07,46,6.70
2015,04,29,07,47,6.70
2015,04,29,07,48,6.70
2015,04,29,07,49,6.70
2015,04,29,07,50,6.70
2015,04,29,07,51,6.80
2015,04,29,07,52,6.80
2015,04,29,07,53,6.80
2015,04,29,07,54,6.80
2015,04,29,07,55,6.90
2015,04,29,07,56,6.90
2015,04,29,07,57,7.00
2015,04,29,07,58,7.00
2015,04,29,07,59,7.10
2015,04,29,08,00,7.20
2015,04,29,08,01,7.20
2015,04,29,08,02,7.20
2015,04,29,08,03,7.30
2015,04,29,08,04,7.40
2015,04,29,08,05,7.40
2015,04,29,08,06,7.50
2015,04,29,08,07,7.60
2015,04,29,08,08,7.60
2015,04,29,08,09,7.60
2015,04,29,08,10,7.70
2015,04,29,08,11,7.70
2015,04,29,08,12,7.80
2015,04,29,08,13,7.80
2015,04,29,08,14,7.90
2015,04,29,08,15,7.90
2015,04,29,08,16,8.00
2015,04,29,08,17,8.00
2015,04,29,08,18,8.10
2015,04,29,08,19,8.10
2015,04,29,08,20,8.10
2015,04,29,08,21,8.20
2015,04,29,08,22,8.20
2015,04,29,08,23,8.20
2015,04,29,08,24,8.30
2015,04,29,08,25,8.30
2015,04,29,08,26,8.30
2015,04,29,08,27,8.30
2015,04,29,08,28,8.30
2015,04,29,08,29,8.30
2015,04,29,08,30,8.30
2015,04,29,08,31,8.30
2015,04,29,08,32,8.30
2015,04,29,08,33,8.40
2015,04,29,08,34,8.40
2015,04,29,08,35,8.40
2015,04,29,08,36,8.40
2015,04,29,08,37,8.40
2015,04,29,08,38,8.40
2015,04,29,08,39,8.40
2015,04,29,08,40,8.40
2015,04,29,08,41,8.40
2015,04,29,08,42,8.40
2015,04,29,08,43,8.40
2015,04,29,08,44,8.40
2015,04,29,08,45,8.40
2015,04,29,08,46,8.40
2015,04,29,08,47,8.40
2015,04,29,08,48,8.40
2015,04,29,08,49,8.40
2015,04,29,08,50,8.40
2015,04,29,08,51,8.40
2015,04,29,08,52,8.40
2015,04,29,08,53,8.50
2015,04,29,08,54,8.50
2015,04,29,08,55,8.50
2015,04,29,08,56,8.60
2015,04,29,08,57,8.60
2015,04,29,08,58,8.60
2015,04,29,08,59,8.60
2015,04,29,09,00,8.60
2015,04,29,09,01,8.70
2015,04,29,09,02,8.70
2015,04,29,09,03,8.70
2015,04,29,09,04,8.70
2015,04,29,09,05,8.70
2015,04,29,09,06,8.80
2015,04,29,09,07,8.80
2015,04,29,09,08,8.80
2015,04,29,09,09,8.90
2015,04,29,09,10,8.90
2015,04,29,09,11,9.00
2015,04,29,09,12,9.00
2015,04,29,09,13,9.10
2015,04,29,09,14,9.10
2015,04,29,09,15,9.20
2015,04,29,09,16,9.20
2015,04,29,09,17,9.30
2015,04,29,09,18,9.30
2015,04,29,09,19,9.30
2015,04,29,09,20,9.40
2015,04,29,09,21,9.40
2015,04,29,09,22,9.40
2015,04,29,09,23,9.50
2015,04,29,09,24,9.50
2015,04,29,09,25,9.50
2015,04,29,09,26,9.50
2015,04,29,09,27,9.60
2015,04,29,09,28,9.60
2015,04,29,09,29,9.60
2015,04,29,09,30,9.60
2015,04,29,09,31,9.60
2015,04,29,09,32,9.70
2015,04,29,09,33,9.70
2015,04,29,09,34,9.80
2015,04,29,09,35,9.80
2015,04,29,09,36,9.80
2015,04,29,09,37,9.80
2015,04,29,09,38,9.90
2015,04,29,09,39,9.90
2015,04,29,09,40,10.00
2015,04,29,09,41,10.00
2015,04,29,09,42,10.00
2015,04,29,09,43,10.10
2015,04,29,09,44,10.10
2015,04,29,09,45,10.10
2015,04,29,09,46,10.10
2015,04,29,09,47,10.10
2015,04,29,09,48,10.10
2015,04,29,09,49,10.20
2015,04,29,09,50,10.20
2015,04,29,09,51,10.20
2015,04,29,09,52,10.20
2015,04,29,09,53,10.20
2015,04,29,09,54,10.20
2015,04,29,09,55,10.30
2015,04,29,09,56,10.30
2015,04,29,09,57,10.30
2015,04,29,09,58,10.30
2015,04,29,09,59,10.30
2015,04,29,10,00,10.30
2015,04,29,10,01,10.30
2015,04,29,10,02,10.30
2015,04,29,10,03,10.30
2015,04,29,10,04,10.30
2015,04,29,10,05,10.30
2015,04,29,10,06,10.30
2015,04,29,10,07,10.30
2015,04,29,10,08,10.30
2015,04,29,10,09,10.30
2015,04,29,10,10,10.30
2015,04,29,10,11,10.30
2015,04,29,10,12,10.30
2015,04,29,10,13,10.30
2015,04,29,10,14,10.30
2015,04,29,10,15,10.30
2015,04,29,10,16,10.30
2015,04,29,10,17,10.30
2015,04,29,10,18,10.40
2015,04,29,10,19,10.40
2015,04,29,10,20,10.50
2015,04,29,10,21,10.50
2015,04,29,10,22,10.60
2015,04,29,10,23,10.60
2015,04,29,10,24,10.70
2015,04,29,10,25,10.70
2015,04,29,10,26,10.80
2015,04,29,10,27,10.80
2015,04,29,10,28,10.90
2015,04,29,10,29,10.90
2015,04,29,10,30,10.90
2015,04,29,10,31,11.00
2015,04,29,10,32,11.00
2015,04,29,10,33,11.10
2015,04,29,10,34,11.10
2015,04,29,10,35,11.10
2015,04,29,10,36,11.20
2015,04,29,10,37,11.20
2015,04,29,10,38,11.30
2015,04,29,10,39,11.30
2015,04,29,10,40,11.40
2015,04,29,10,41,11.50
2015,04,29,10,42,11.50
2015,04,29,10,43,11.60
2015,04,29,10,44,11.60
2015,04,29,10,45,11.70
2015,04,29,10,46,11.80
2015,04,29,10,47,11.80
2015,04,29,10,48,11.80
2015,04,29,10,49,11.80
2015,04,29,10,50,11.80
2015,04,29,10,51,11.80
2015,04,29,10,52,11.80
2015,04,29,10,53,11.80
2015,04,29,10,54,11.80
2015,04,29,10,55,11.70
2015,04,29,10,56,11.70
2015,04,29,10,57,11.70
2015,04,29,10,58,11.70
2015,04,29,10,59,11.70
2015,04,29,11,00,11.70
2015,04,29,11,01,11.70
2015,04,29,11,02,11.70
2015,04,29,11,03,11.70
2015,04,29,11,04,11.80
2015,04,29,11,05,11.90
2015,04,29,11,06,11.90
2015,04,29,11,07,11.90
2015,04,29,11,08,12.00
2015,04,29,11,09,12.00
2015,04,29,11,10,12.00
2015,04,29,11,11,12.10
2015,04,29,11,12,12.10
2015,04,29,11,13,12.10
2015,04,29,11,14,12.10
2015,04,29,11,15,12.10
2015,04,29,11,16,12.10
2015,04,29,11,17,12.20
2015,04,29,11,18,12.20
2015,04,29,11,19,12.20
2015,04,29,11,20,12.20
2015,04,29,11,21,12.20
2015,04,29,11,22,12.20
2015,04,29,11,23,12.20
2015,04,29,11,24,12.20
2015,04,29,11,25,12.30
2015,04,29,11,26,12.30
2015,04,29,11,27,12.30
2015,04,29,11,28,12.30
2015,04,29,11,29,12.30
2015,04,29,11,30,12.20
2015,04,29,11,31,12.20
2015,04,29,11,32,12.20
2015,04,29,11,33,12.20
2015,04,29,11,34,12.10
2015,04,29,11,35,12.10
2015,04,29,11,36,12.10
2015,04,29,11,37,12.00
2015,04,29,11,38,12.00
2015,04,29,11,39,12.00
2015,04,29,11,40,11.90
2015,04,29,11,41,11.90
2015,04,29,11,42,11.90
2015,04,29,11,43,11.90
2015,04,29,11,44,11.90
2015,04,29,11,45,11.90
2015,04,29,11,46,12.00
2015,04,29,11,47,12.00
2015,04,29,11,48,12.10
2015,04,29,11,49,12.10
2015,04,29,11,50,12.20
2015,04,29,11,51,12.20
2015,04,29,11,52,12.20
2015,04,29,11,53,12.20
2015,04,29,11,54,12.20
2015,04,29,11,55,12.30
2015,04,29,11,56,12.30
2015,04,29,11,57,12.40
2015,04,29,11,58,12.50
2015,04,29,11,59,12.50
2015,04,29,12,00,12.60
2015,04,29,12,01,12.70
2015,04,29,12,02,12.80
2015,04,29,12,03,12.80
2015,04,29,12,04,12.90
2015,04,29,12,05,12.90
2015,04,29,12,06,13.00
2015,04,29,12,07,13.00
2015,04,29,12,08,13.10
2015,04,29,12,09,13.20
2015,04,29,12,10,13.30
2015,04,29,12,11,13.30
2015,04,29,12,12,13.40
2015,04,29,12,13,13.50
2015,04,29,12,14,13.60
2015,04,29,12,15,13.70
2015,04,29,12,16,13.80
2015,04,29,12,17,13.80
2015,04,29,12,18,13.80
2015,04,29,12,19,13.80
2015,04,29,12,20,13.80
2015,04,29,12,21,13.80
2015,04,29,12,22,13.80
2015,04,29,12,23,13.80
2015,04,29,12,24,13.90
2015,04,29,12,25,13.90
2015,04,29,12,26,14.00
2015,04,29,12,27,14.00
2015,04,29,12,28,14.00
2015,04,29,12,29,14.10
2015,04,29,12,30,14.10
2015,04,29,12,31,14.00
2015,04,29,12,32,14.00
2015,04,29,12,33,13.90
2015,04,29,12,34,13.80
2015,04,29,12,35,13.70
2015,04,29,12,36,13.60
2015,04,29,12,37,13.50
2015,04,29,12,38,13.50
2015,04,29,12,39,13.40
2015,04,29,12,40,13.30
2015,04,29,12,41,13.20
2015,04,29,12,42,13.10
2015,04,29,12,43,13.10
2015,04,29,12,44,13.00
2015,04,29,12,45,13.00
2015,04,29,12,46,12.90
2015,04,29,12,47,12.90
2015,04,29,12,48,12.90
2015,04,29,12,49,12.90
2015,04,29,12,50,13.00
2015,04,29,12,51,13.00
2015,04,29,12,52,13.10
2015,04,29,12,53,13.10
2015,04,29,12,54,13.20
2015,04,29,12,55,13.20
2015,04,29,12,56,13.30
2015,04,29,12,57,13.30
2015,04,29,12,58,13.30
2015,04,29,12,59,13.40
2015,04,29,13,00,13.50
2015,04,29,13,01,13.60
2015,04,29,13,02,13.70
2015,04,29,13,03,13.80
2015,04,29,13,04,13.80
2015,04,29,13,05,13.90
2015,04,29,13,06,13.90
2015,04,29,13,07,14.00
2015,04,29,13,08,14.10
2015,04,29,13,09,14.10
2015,04,29,13,10,14.00
2015,04,29,13,11,14.00
2015,04,29,13,12,13.90
2015,04,29,13,13,13.80
2015,04,29,13,14,13.70
2015,04,29,13,15,13.70
2015,04,29,13,16,13.70
2015,04,29,13,17,13.70
2015,04,29,13,18,13.60
2015,04,29,13,19,13.60
2015,04,29,13,20,13.60
2015,04,29,13,21,13.60
2015,04,29,13,22,13.60
2015,04,29,13,23,13.60
2015,04,29,13,24,13.60
2015,04,29,13,25,13.50
2015,04,29,13,26,13.40
2015,04,29,13,27,13.30
2015,04,29,13,28,13.20
2015,04,29,13,29,13.10
2015,04,29,13,30,13.00
2015,04,29,13,31,12.90
2015,04,29,13,32,12.80
2015,04,29,13,33,12.70
2015,04,29,13,34,12.70
2015,04,29,13,35,12.70
2015,04,29,13,36,12.70
2015,04,29,13,37,12.70
2015,04,29,13,38,12.70
2015,04,29,13,39,12.80
2015,04,29,13,40,12.80
2015,04,29,13,41,12.90
2015,04,29,13,42,12.90
2015,04,29,13,43,12.90
2015,04,29,13,44,13.00
2015,04,29,13,45,13.00
2015,04,29,13,46,13.10
2015,04,29,13,47,13.20
2015,04,29,13,48,13.20
2015,04,29,13,49,13.30
2015,04,29,13,50,13.40
2015,04,29,13,51,13.40
2015,04,29,13,52,13.50
2015,04,29,13,53,13.50
2015,04,29,13,54,13.60
2015,04,29,13,55,13.60
2015,04,29,13,56,13.60
2015,04,29,13,57,13.60
2015,04,29,13,58,13.70
2015,04,29,13,59,13.70
2015,04,29,14,00,13.80
2015,04,29,14,01,13.80
2015,04,29,14,02,13.90
2015,04,29,14,03,13.90
2015,04,29,14,04,14.00
2015,04,29,14,05,14.00
2015,04,29,14,06,14.10
2015,04,29,14,07,14.10
2015,04,29,14,08,14.20
2015,04,29,14,09,14.20
2015,04,29,14,10,14.30
2015,04,29,14,11,14.40
2015,04,29,14,12,14.40
2015,04,29,14,13,14.40
2015,04,29,14,14,14.50
2015,04,29,14,15,14.50
2015,04,29,14,16,14.40
2015,04,29,14,17,14.40
2015,04,29,14,18,14.30
2015,04,29,14,19,14.30
2015,04,29,14,20,14.20
2015,04,29,14,21,14.20
2015,04,29,14,22,14.20
2015,04,29,14,23,14.10
2015,04,29,14,24,14.10
2015,04,29,14,25,14.10
2015,04,29,14,26,14.10
2015,04,29,14,27,14.10
2015,04,29,14,28,14.20
2015,04,29,14,29,14.20
2015,04,29,14,30,14.20
2015,04,29,14,31,14.20
2015,04,29,14,32,14.20
2015,04,29,14,33,14.20
2015,04,29,14,34,14.20
2015,04,29,14,35,14.20
2015,04,29,14,36,14.30
2015,04,29,14,37,14.40
2015,04,29,14,38,14.50
2015,04,29,14,39,14.50
2015,04,29,14,40,14.60
2015,04,29,14,41,14.50
2015,04,29,14,42,14.50
2015,04,29,14,43,14.50
2015,04,29,14,44,14.40
2015,04,29,14,45,14.30
2015,04,29,14,46,14.30
2015,04,29,14,47,14.20
2015,04,29,14,48,14.10
2015,04,29,14,49,14.00
2015,04,29,14,50,14.00
2015,04,29,14,51,13.90
2015,04,29,14,52,14.00
2015,04,29,14,53,14.00
2015,04,29,14,54,14.10
2015,04,29,14,55,14.10
2015,04,29,14,56,14.10
2015,04,29,14,57,14.10
2015,04,29,14,58,14.20
2015,04,29,14,59,14.30
2015,04,29,15,00,14.30
2015,04,29,15,01,14.40
2015,04,29,15,02,14.40
2015,04,29,15,03,14.50
2015,04,29,15,04,14.60
2015,04,29,15,05,14.60
2015,04,29,15,06,14.60
2015,04,29,15,07,14.60
2015,04,29,15,08,14.70
2015,04,29,15,09,14.80
2015,04,29,15,10,14.80
2015,04,29,15,11,15.00
2015,04,29,15,12,15.00
2015,04,29,15,13,15.00
2015,04,29,15,14,14.90
2015,04,29,15,15,14.80
2015,04,29,15,16,14.70
2015,04,29,15,17,14.70
2015,04,29,15,18,14.70
2015,04,29,15,19,14.70
2015,04,29,15,20,14.70
2015,04,29,15,21,14.80
2015,04,29,15,22,14.90
2015,04,29,15,23,15.00
2015,04,29,15,24,15.00
2015,04,29,15,25,15.00
2015,04,29,15,26,15.10
2015,04,29,15,27,15.20
2015,04,29,15,28,15.30
2015,04,29,15,29,15.30
2015,04,29,15,30,15.40
2015,04,29,15,31,15.40
2015,04,29,15,32,15.40
2015,04,29,15,33,15.40
2015,04,29,15,34,15.50
2015,04,29,15,35,15.50
2015,04,29,15,36,15.60
2015,04,29,15,37,15.60
2015,04,29,15,38,15.60
2015,04,29,15,39,15.60
2015,04,29,15,40,15.60
2015,04,29,15,41,15.60
2015,04,29,15,42,15.60
2015,04,29,15,43,15.60
2015,04,29,15,44,15.60
2015,04,29,15,45,15.50
2015,04,29,15,46,15.40
2015,04,29,15,47,15.40
2015,04,29,15,48,15.30
2015,04,29,15,49,15.40
2015,04,29,15,50,15.40
2015,04,29,15,51,15.40
2015,04,29,15,52,15.50
2015,04,29,15,53,15.50
2015,04,29,15,54,15.60
2015,04,29,15,55,15.70
2015,04,29,15,56,15.80
2015,04,29,15,57,15.90
2015,04,29,15,58,16.00
2015,04,29,15,59,16.00
2015,04,29,16,00,16.00
2015,04,29,16,01,15.90
2015,04,29,16,02,15.90
2015,04,29,16,03,15.80
2015,04,29,16,04,15.60
2015,04,29,16,05,15.50
2015,04,29,16,06,15.50
2015,04,29,16,07,15.30
2015,04,29,16,08,15.20
2015,04,29,16,09,15.10
2015,04,29,16,10,15.00
2015,04,29,16,11,15.00
2015,04,29,16,12,15.00
2015,04,29,16,13,15.00
2015,04,29,16,14,15.20
2015,04,29,16,15,15.30
2015,04,29,16,16,15.40
2015,04,29,16,17,15.60
2015,04,29,16,18,15.70
2015,04,29,16,19,15.70
2015,04,29,16,20,15.70
2015,04,29,16,21,15.70
2015,04,29,16,22,15.70
2015,04,29,16,23,15.70
2015,04,29,16,24,15.80
2015,04,29,16,25,15.80
2015,04,29,16,26,15.90
2015,04,29,16,27,15.90
2015,04,29,16,28,15.90
2015,04,29,16,29,15.90
2015,04,29,16,30,15.90
2015,04,29,16,31,15.80
2015,04,29,16,32,15.80
2015,04,29,16,33,15.80
2015,04,29,16,34,15.80
2015,04,29,16,35,15.80
2015,04,29,16,36,15.70
2015,04,29,16,37,15.70
2015,04,29,16,38,15.60
2015,04,29,16,39,15.60
2015,04,29,16,40,15.60
2015,04,29,16,41,15.60
2015,04,29,16,42,15.60
2015,04,29,16,43,15.50
2015,04,29,16,44,15.50
2015,04,29,16,45,15.40
2015,04,29,16,46,15.30
2015,04,29,16,47,15.30
2015,04,29,16,48,15.20
2015,04,29,16,49,15.20
2015,04,29,16,50,15.10
2015,04,29,16,51,15.00
2015,04,29,16,52,15.00
2015,04,29,16,53,15.00
2015,04,29,16,54,15.00
2015,04,29,16,55,15.00
2015,04,29,16,56,15.00
2015,04,29,16,57,15.00
2015,04,29,16,58,14.90
2015,04,29,16,59,14.80
2015,04,29,17,00,14.70
2015,04,29,17,01,14.60
2015,04,29,17,02,14.50
2015,04,29,17,03,14.40
2015,04,29,17,04,14.40
2015,04,29,17,05,14.30
2015,04,29,17,06,14.20
2015,04,29,17,07,14.20
2015,04,29,17,08,14.10
2015,04,29,17,09,14.10
2015,04,29,17,10,14.10
2015,04,29,17,11,14.00
2015,04,29,17,12,14.00
2015,04,29,17,13,13.90
2015,04,29,17,14,13.90
2015,04,29,17,15,13.90
2015,04,29,17,16,13.90
2015,04,29,17,17,13.90
2015,04,29,17,18,13.90
2015,04,29,17,19,14.00
2015,04,29,17,20,14.10
2015,04,29,17,21,14.10
2015,04,29,17,22,14.20
2015,04,29,17,23,14.20
2015,04,29,17,24,14.20
2015,04,29,17,25,14.20
2015,04,29,17,26,14.10
2015,04,29,17,27,14.10
2015,04,29,17,28,14.10
2015,04,29,17,29,14.00
2015,04,29,17,30,14.00
2015,04,29,17,31,13.90
2015,04,29,17,32,13.90
2015,04,29,17,33,13.90
2015,04,29,17,34,13.90
2015,04,29,17,35,13.90
2015,04,29,17,36,13.90
2015,04,29,17,37,13.90
2015,04,29,17,38,13.90
2015,04,29,17,39,13.90
2015,04,29,17,40,14.00
2015,04,29,17,41,14.00
2015,04,29,17,42,14.00
2015,04,29,17,43,14.10
2015,04,29,17,44,14.00